Weather History for Alicante, Spain

Change the Weather History Date:

Saturday, September 29, 2012

  Actual Average Record
Temperature  
Mean Temperature 66 °F -  
Max Temperature 77 °F 75 °F 87 °F (1999)
Min Temperature 56 °F 58 °F 56 °F (2012)
Cooling Degree Days 2    
Growing Degree Days 16 (Base 50)    
Moisture  
Dew Point 57 °F    
Average Humidity 74    
Maximum Humidity 94    
Minimum Humidity 32    
Precipitation  
Precipitation 0.00 in - - ()
Sea Level Pressure  
Sea Level Pressure 29.86 in    
Wind  
Wind Speed 6 mph ()    
Max Wind Speed 14 mph    
Max Gust Speed 24 mph    
Visibility 6.7 miles    
Events      
Averages and records for this station are not official NWS values.
T = Trace of Precipitation, MM = Missing Value Source: Averaged Metar Reports

Daily Weather History Graph

Daily Weather History Graph

Search for Another Location

Airport:

Trip Planner

Search our weather history database for the weather conditions in past years. The results will help you decide how hot, cold, wet, or windy it might be!

Date:

Astronomy

Sep. 29, 2012 Rise Set
Actual Time 7:56 AM CEST 7:47 PM CEST
Civil Twilight 7:30 AM CEST 8:14 PM CEST
Nautical Twilight 6:59 AM CEST 8:44 PM CEST
Astronomical Twilight 6:28 AM CEST 9:15 PM CEST
Moon 7:13 PM CEST (9/29) 7:12 AM CEST (9/29)
Length of Visible Light 12h 44m
Length of Day
11h 51m
Waxing Gibbous, 99% of the Moon is Illuminated
Sep 29
Waxing Gibbous
Sep 30
Full
Oct 8
Last Quarter
Oct 15
New
Oct 22
First Quarter

Hourly Weather History & Observations

Time (CEST) Temp. Dew Point Humidity Pressure Visibility Wind Dir Wind Speed Gust Speed Precip Events Conditions
12:00 AM 62.6 °F 60.8 °F 94% 29.80 in 6.2 mi SW 6.9 mph - N/A   Partly Cloudy
12:30 AM 60.8 °F 59.0 °F 94% 29.80 in 6.2 mi SW 4.6 mph - N/A   Partly Cloudy
1:00 AM 60.8 °F 59.0 °F 94% 29.80 in 6.2 mi SW 5.8 mph - N/A   Partly Cloudy
1:30 AM 60.8 °F 59.0 °F 94% 29.80 in 6.2 mi SW 5.8 mph - N/A   Partly Cloudy
2:00 AM 61 °F 56 °F 79% 29.82 in 12 mi SW 5.8 mph - -   Scattered Clouds
2:00 AM 60.8 °F 59.0 °F 94% 29.80 in 6.2 mi SW 5.8 mph - N/A   Partly Cloudy
2:30 AM 60.8 °F 59.0 °F 94% 29.80 in 6.2 mi SW 8.1 mph - N/A   Partly Cloudy
3:00 AM 60.8 °F 57.2 °F 88% 29.83 in - SW 4.6 mph - N/A   Clear
3:30 AM 60.8 °F 57.2 °F 88% 29.83 in - SW 5.8 mph - N/A   Clear
4:00 AM 60.8 °F 57.2 °F 88% 29.83 in - SW 8.1 mph - N/A   Clear
4:30 AM 60.8 °F 57.2 °F 88% 29.83 in - SW 5.8 mph - N/A   Clear
5:00 AM 59.0 °F 57.2 °F 94% 29.83 in - West 4.6 mph - N/A   Clear
5:30 AM 59.0 °F 57.2 °F 94% 29.83 in - Variable 1.2 mph - N/A   Clear
6:00 AM 57.2 °F 55.4 °F 94% 29.83 in - Variable 2.3 mph - N/A   Clear
6:30 AM 57.2 °F 55.4 °F 94% 29.83 in - Variable 2.3 mph - N/A   Clear
7:00 AM 57.2 °F 55.4 °F 94% 29.83 in - WSW 3.5 mph - N/A   Clear
7:30 AM 57.2 °F 55.4 °F 94% 29.86 in 6.2 mi SW 3.5 mph - N/A   Partly Cloudy
8:00 AM 59 °F 53 °F 76% 29.87 in 9 mi WSW 8.1 mph - -   Scattered Clouds
8:00 AM 59.0 °F 55.4 °F 88% 29.86 in 6.2 mi WSW 9.2 mph - N/A   Partly Cloudy
8:30 AM 57.2 °F 55.4 °F 94% 29.86 in 6.2 mi West 3.5 mph - N/A   Partly Cloudy
9:00 AM 59.0 °F 57.2 °F 94% 29.86 in 6.2 mi SSW 3.5 mph - N/A   Partly Cloudy
9:30 AM 62.6 °F 57.2 °F 82% 29.89 in 6.2 mi Variable 2.3 mph - N/A   Partly Cloudy
10:00 AM 66.2 °F 57.2 °F 73% 29.89 in 6.2 mi SW 4.6 mph - N/A   Partly Cloudy
10:30 AM 68.0 °F 55.4 °F 64% 29.89 in 6.2 mi Variable 2.3 mph - N/A   Partly Cloudy
11:00 AM 69.8 °F 57.2 °F 64% 29.89 in 6.2 mi SW 4.6 mph - N/A   Partly Cloudy
11:30 AM 71.6 °F 55.4 °F 57% 29.89 in 6.2 mi SW 6.9 mph - N/A   Partly Cloudy
12:00 PM 71.6 °F 55.4 °F 57% 29.89 in 6.2 mi SW 6.9 mph - N/A   Partly Cloudy
12:30 PM 73.4 °F 51.8 °F 47% 29.89 in 6.2 mi SW 10.4 mph - N/A   Partly Cloudy
1:00 PM 75.2 °F 53.6 °F 47% 29.86 in 6.2 mi SW 10.4 mph - N/A   Partly Cloudy
1:30 PM 75.2 °F 53.6 °F 47% 29.89 in 6.2 mi SW 9.2 mph - N/A   Partly Cloudy
2:00 PM 75 °F 51 °F 32% 29.88 in 25 mi SW 10.4 mph - -   Scattered Clouds
2:00 PM 75.2 °F 51.8 °F 44% 29.86 in 6.2 mi SW 9.2 mph - N/A   Partly Cloudy
2:30 PM 77.0 °F 53.6 °F 44% 29.86 in 6.2 mi SW 9.2 mph - N/A   Partly Cloudy
3:00 PM 77.0 °F 50.0 °F 39% 29.86 in 6.2 mi SSW 9.2 mph - N/A   Partly Cloudy
3:30 PM 78.8 °F 51.8 °F 39% 29.86 in 6.2 mi South 10.4 mph 24.2 mph N/A   Partly Cloudy
4:30 PM 77.0 °F 57.2 °F 50% 29.86 in 6.2 mi South 13.8 mph - N/A   Partly Cloudy
5:00 PM 75.2 °F 60.8 °F 61% 29.86 in 6.2 mi South 13.8 mph - N/A   Partly Cloudy
5:30 PM 75.2 °F 59.0 °F 57% 29.86 in 6.2 mi South 13.8 mph - N/A   Partly Cloudy
6:00 PM 75.2 °F 60.8 °F 61% 29.86 in 6.2 mi South 11.5 mph - N/A   Partly Cloudy
6:30 PM 73.4 °F 60.8 °F 65% 29.86 in 6.2 mi South 10.4 mph - N/A   Scattered Clouds
7:00 PM 73.4 °F 60.8 °F 65% 29.86 in 6.2 mi South 9.2 mph - N/A   Scattered Clouds
7:30 PM 73.4 °F 59.0 °F 61% 29.89 in 6.2 mi SSW 6.9 mph - N/A   Scattered Clouds
8:00 PM 71 °F 57 °F 53% 29.89 in 19 mi SSW 4.6 mph - -   Partly Cloudy
8:00 PM 71.6 °F 60.8 °F 69% 29.89 in 6.2 mi SSW 4.6 mph - N/A   Scattered Clouds
8:30 PM 69.8 °F 60.8 °F 73% 29.89 in 6.2 mi SSW 6.9 mph - N/A   Scattered Clouds
9:00 PM 69.8 °F 60.8 °F 73% 29.89 in 6.2 mi SW 6.9 mph - N/A   Scattered Clouds
9:30 PM 68.0 °F 60.8 °F 78% 29.92 in 6.2 mi WSW 4.6 mph - N/A   Scattered Clouds
10:00 PM 66.2 °F 60.8 °F 83% 29.92 in 6.2 mi WSW 3.5 mph - N/A   Partly Cloudy
10:30 PM 66.2 °F 60.8 °F 83% 29.92 in 6.2 mi WSW 4.6 mph - N/A   Partly Cloudy
11:00 PM 66.2 °F 60.8 °F 83% 29.95 in 6.2 mi WSW 5.8 mph - N/A   Partly Cloudy
11:30 PM 64.4 °F 60.8 °F 88% 29.95 in 6.2 mi WSW 5.8 mph - N/A   Partly Cloudy